Theta_e
316 312 313 313 313 312 313 313 312 312 313 312 309 308 308 307 307 306 304 303 303 302 307 308 310 310 309 307 305 305 305 305 304 304 303 303 302 302 302 302 301 300 301 301
312 315 313 313 314 314 314 314 313 310 312 311 310 310 310 310 308 307 307 303 303 303 303 306 308 309 309 308 306 305 305 305 304 304 303 303 303 302 302 302 302 301 300 301
313 316 313 314 313 313 312 313 311 311 310 310 310 312 310 312 311 310 307 304 304 303 303 303 306 308 308 308 307 306 305 305 304 304 304 303 303 302 302 302 302 302 301 301
314 313 314 314 314 311 312 312 312 312 310 311 310 309 312 312 311 311 309 305 305 304 303 304 305 306 308 309 308 307 306 305 304 304 304 303 303 302 303 303 303 302 302 301
313 313 313 314 314 311 311 311 310 312 313 313 315 309 311 310 313 312 310 307 305 305 304 302 305 308 310 309 308 308 307 306 305 304 304 304 303 303 303 303 303 302 302 302
312 310 311 312 311 310 310 312 313 313 314 318 316 311 310 312 314 313 311 310 307 306 304 305 307 308 308 308 308 308 307 306 306 305 304 304 304 303 303 303 303 303 303 302
313 312 309 309 312 311 311 313 318 322 318 318 314 312 311 312 313 312 312 309 307 306 305 304 304 306 308 308 308 308 307 307 306 305 304 304 304 304 303 303 303 303 303 302
313 315 311 308 310 314 311 312 313 319 315 314 313 313 317 312 313 311 311 311 308 307 305 305 306 308 308 309 309 309 308 308 308 306 305 305 304 304 304 303 303 303 303 303
314 315 307 307 306 309 313 312 311 314 315 316 316 315 314 312 312 312 311 311 309 307 307 307 308 309 310 310 311 311 311 310 310 309 308 306 305 304 304 304 304 303 303 303
313 314 309 308 307 308 311 310 316 315 319 319 315 315 315 313 311 311 311 310 308 308 307 306 308 311 312 312 312 312 312 312 312 311 310 309 308 307 306 304 304 304 304 304
312 313 311 309 308 309 308 310 310 312 313 316 317 317 311 311 310 310 309 309 309 308 307 306 308 310 312 312 312 313 312 312 312 312 311 310 309 309 307 305 305 305 305 304
312 309 310 310 308 307 308 310 309 316 316 310 311 315 312 308 309 308 312 312 309 309 308 306 308 310 311 311 312 312 312 311 312 311 310 309 309 308 308 307 306 306 305 305
310 311 313 314 312 309 308 307 309 311 311 312 314 316 312 307 307 308 312 310 309 308 308 307 308 309 310 311 312 312 312 311 311 310 309 308 307 307 307 307 307 306 306 305
311 310 312 315 317 310 309 309 309 310 310 310 313 314 314 312 308 311 309 309 309 309 308 307 307 309 311 311 311 312 312 310 310 309 308 307 307 306 306 305 305 305 305 305
310 312 313 314 314 310 311 311 308 310 309 313 314 313 313 312 310 309 309 310 310 309 309 308 308 307 310 311 311 311 311 310 308 307 306 306 305 305 305 304 304 304 304 304
309 313 314 316 314 312 314 312 309 308 309 309 311 311 311 310 309 308 307 307 309 308 308 308 307 308 309 310 311 310 310 309 307 307 307 306 305 305 304 304 304 304 304 304
310 311 312 313 313 313 315 314 313 311 308 310 311 313 312 312 311 310 310 309 309 308 308 307 307 308 310 311 311 310 310 309 308 307 306 306 305 305 304 304 304 303 303 303
309 311 311 313 314 317 314 313 312 313 314 309 310 310 310 311 310 308 308 310 309 308 308 307 308 310 310 311 311 310 310 309 307 307 306 306 306 305 304 304 304 303 303 303
308 312 312 314 313 313 315 314 313 313 317 313 312 313 312 310 312 310 308 307 309 309 309 310 311 310 311 312 311 310 309 309 307 307 307 307 306 305 305 304 304 304 303 303
310 310 313 308 316 317 314 314 311 313 318 312 313 314 311 310 313 313 311 308 308 310 311 311 311 311 311 313 312 310 310 309 308 309 309 308 307 306 306 306 305 304 303 303
312 310 313 315 314 313 312 314 310 319 320 315 312 312 309 312 312 311 311 311 310 310 311 311 311 311 313 313 311 310 310 309 311 310 309 308 308 307 307 306 306 305 304 303
314 314 311 311 314 317 313 312 316 316 314 315 312 310 310 310 312 311 310 311 310 310 312 312 311 312 313 313 312 311 309 313 312 311 310 310 309 309 308 307 307 305 304 302
316 314 315 315 316 313 312 315 312 312 316 316 313 312 311 310 311 312 311 309 309 310 311 312 312 312 314 314 314 310 312 312 310 309 309 309 309 308 308 308 307 305 304 302
311 311 313 313 312 312 311 311 311 310 313 313 313 312 312 313 312 311 309 309 308 311 311 312 312 311 312 315 313 312 311 311 311 310 309 309 308 309 309 308 307 305 303 302
312 312 313 313 314 315 313 312 312 311 311 311 311 312 311 310 310 309 309 308 309 310 312 313 312 312 312 312 311 312 312 312 310 309 309 309 309 309 308 308 307 306 306 305
310 312 316 317 314 316 315 314 314 313 312 311 312 312 311 310 311 311 309 310 311 312 314 313 313 310 311 311 311 311 311 310 309 308 308 308 308 308 307 306 305 304 303 302
Wind_Speed
3 5 2 3 3 4 1 1 2 3 2 2 5 8 14 8 7 9 9 10 10 12 22 28 32 33 32 30 34 36 35 32 30 29 28 27 29 28 26 25 22 21 21 21
5 2 5 4 3 1 0 2 4 4 0 2 5 10 6 1 5 8 13 10 11 6 7 18 28 29 32 35 35 35 37 35 35 34 32 30 24 28 28 24 24 23 24 23
5 3 2 1 2 1 1 2 1 3 6 2 5 7 6 2 1 3 4 7 6 10 10 9 22 32 32 36 37 37 38 38 37 37 34 31 29 25 24 29 29 27 25 26
2 1 2 1 1 2 2 2 1 3 4 2 3 2 4 5 7 4 5 6 8 9 6 9 19 28 34 39 38 38 37 38 38 38 38 37 35 34 35 32 29 27 27 27
3 3 2 2 1 1 3 1 1 0 2 2 5 4 6 5 5 4 7 7 8 7 8 10 21 33 38 37 39 39 38 38 38 40 41 41 40 39 37 33 31 30 28 29
1 1 1 1 1 1 1 2 5 3 2 3 2 4 5 3 4 3 3 5 7 6 8 11 22 28 32 34 35 36 38 40 40 40 41 43 43 43 39 38 35 33 32 31
2 1 1 1 1 1 3 4 3 3 4 4 3 2 8 5 5 4 4 7 7 7 6 7 10 20 29 31 33 33 35 39 42 43 43 44 46 45 45 43 41 39 36 34
6 3 4 1 1 3 1 4 4 3 3 4 3 3 3 4 1 2 4 4 6 7 6 7 12 17 21 24 27 30 34 37 40 41 43 44 45 47 47 45 43 43 42 40
4 2 1 2 1 2 2 1 2 5 3 2 3 5 6 1 3 4 6 5 8 8 7 8 11 16 19 21 24 27 29 33 36 38 38 40 42 44 47 46 44 43 43 41
6 3 1 1 1 1 1 1 2 2 3 2 4 5 5 6 8 6 6 7 8 8 8 8 13 17 20 22 24 25 28 30 31 31 32 33 35 38 41 42 43 43 43 40
5 3 1 2 4 6 1 0 3 3 4 4 1 6 7 9 8 9 8 7 7 8 8 8 14 19 21 23 23 26 27 29 29 28 26 27 30 31 33 37 38 39 39 39
3 5 3 5 2 1 2 5 5 4 4 1 4 6 4 7 8 7 5 6 7 6 6 6 9 11 13 18 23 26 29 28 27 22 20 21 23 25 28 32 34 34 34 35
7 2 3 4 3 2 4 5 4 5 3 6 5 6 3 4 5 7 5 7 6 6 7 6 7 8 11 14 18 20 20 22 22 19 19 19 19 21 23 26 29 31 31 32
5 4 6 7 5 5 5 5 5 5 4 4 6 5 5 7 9 8 8 7 6 6 5 5 6 8 12 15 18 18 18 17 17 17 18 20 20 20 21 22 24 26 29 30
5 6 5 5 3 4 5 5 9 9 5 7 4 9 7 10 10 10 7 6 6 7 7 6 5 8 12 15 16 13 14 15 15 16 17 19 18 19 20 21 22 23 26 28
1 3 4 2 2 7 5 8 10 11 4 10 3 14 9 10 6 7 9 8 8 8 8 8 7 9 12 14 15 15 15 15 15 17 20 20 19 19 20 20 20 22 24 26
8 6 4 4 1 4 6 16 16 7 7 13 10 19 4 6 6 7 8 8 9 9 9 9 8 11 13 15 15 16 16 15 18 20 22 21 20 22 22 20 21 23 25 24
7 7 3 3 1 4 8 2 6 17 16 13 6 12 8 9 6 8 9 8 9 9 9 9 12 13 13 14 16 17 17 17 19 23 25 24 24 25 23 22 25 25 25 26
4 6 3 5 4 6 7 6 9 9 10 19 19 22 13 4 2 10 10 10 11 10 12 15 14 14 14 15 17 18 21 21 22 27 29 29 27 27 27 28 30 28 26 27
6 4 5 3 5 9 8 1 5 6 8 10 20 19 7 7 3 7 2 8 11 18 16 14 11 12 15 20 18 18 23 25 26 31 32 31 29 29 31 33 33 31 29 29
4 2 8 3 5 8 9 3 4 6 8 5 12 8 8 6 7 2 2 2 2 6 7 10 12 15 19 24 23 24 27 29 34 32 30 30 30 31 32 34 34 33 33 31
10 9 4 3 4 10 9 6 9 7 2 5 5 7 9 8 2 4 5 4 4 7 11 14 14 18 22 24 26 29 30 35 34 32 30 31 31 30 32 32 34 35 33 29
5 8 7 11 9 4 11 5 8 2 4 4 6 5 6 7 7 5 5 6 8 13 14 17 20 20 22 24 30 31 35 33 32 32 34 36 36 33 30 30 33 33 31 28
5 5 4 3 7 13 10 8 3 6 5 5 4 6 6 5 5 6 6 6 6 14 18 20 19 20 22 27 28 26 26 26 29 31 33 31 29 31 32 31 30 31 31 26
6 12 8 6 6 4 7 10 8 10 6 5 5 5 7 6 7 7 6 7 9 13 19 22 22 22 27 25 22 23 27 29 28 25 25 27 29 31 32 30 29 29 31 30
6 8 9 8 7 6 6 9 11 9 10 9 8 5 5 6 7 3 5 9 11 15 19 21 24 21 21 22 22 23 21 22 22 23 26 28 29 30 30 27 26 21 20 17
Wind_Direction
6 68 142 227 209 179 181 231 279 255 202 291 239 268 279 245 209 238 228 226 227 225 235 229 225 224 222 220 216 218 218 223 222 219 218 225 232 235 239 240 241 241 241 244
24 169 217 233 239 179 77 268 293 292 292 7 317 299 295 350 213 214 231 222 227 230 232 232 224 221 219 219 219 220 223 224 224 225 227 231 239 243 246 248 246 243 242 243
158 218 197 214 25 67 89 155 40 249 323 243 331 317 339 318 296 311 247 232 221 219 221 222 216 219 219 219 220 223 226 228 228 230 231 232 236 242 242 242 244 242 243 244
182 220 175 223 248 125 319 149 83 312 28 180 36 256 309 323 321 317 301 281 256 229 223 220 214 218 220 224 223 226 230 232 233 233 231 232 233 233 245 250 253 251 245 244
256 178 182 225 224 151 218 146 253 52 15 12 350 63 272 347 318 301 311 281 268 238 218 218 212 220 224 226 227 230 234 236 237 237 236 237 237 246 252 254 254 252 250 247
133 19 87 201 303 190 114 100 38 56 75 43 299 108 293 257 246 290 270 279 267 255 229 236 229 227 230 232 234 235 236 240 241 241 240 239 243 245 247 250 251 252 250 248
1 279 313 100 77 47 82 63 354 359 16 203 308 61 234 259 238 228 242 267 269 262 240 235 221 223 233 236 238 240 242 246 246 245 244 244 245 247 250 252 253 252 250 247
161 278 174 358 194 191 166 143 154 192 191 264 316 251 250 226 244 304 262 242 246 252 244 232 229 230 234 239 242 245 246 250 253 252 250 250 250 249 251 252 254 255 255 256
140 261 332 68 55 129 178 129 182 106 11 44 275 294 320 239 264 259 265 256 256 255 249 242 238 232 235 237 240 241 246 251 256 259 259 255 254 252 253 255 256 257 258 259
206 103 230 337 242 120 138 159 74 8 148 232 291 279 233 229 225 235 252 252 269 267 266 260 249 239 238 238 242 245 250 254 261 264 263 261 259 258 257 257 258 259 261 261
139 105 290 25 207 187 111 316 59 118 133 158 232 261 214 198 194 204 236 246 259 279 277 273 273 270 267 265 265 267 264 264 264 266 267 262 262 261 260 258 260 261 264 263
170 125 168 205 263 268 213 206 155 127 213 106 144 273 231 211 199 201 217 287 297 289 303 292 301 304 290 280 278 275 272 270 264 268 269 267 268 265 262 261 262 263 263 264
183 183 90 358 344 326 224 205 150 117 97 195 138 261 330 244 262 236 234 294 294 294 307 317 325 321 312 309 305 296 285 268 261 262 265 267 268 267 265 266 266 264 262 262
102 154 167 187 198 138 197 197 177 138 133 184 226 272 278 241 234 243 269 285 299 289 298 295 304 308 315 317 318 312 298 276 264 259 261 264 268 270 270 270 268 265 263 261
142 200 174 229 226 174 197 179 184 201 184 182 234 218 223 237 233 248 247 286 272 280 284 267 270 287 305 315 321 312 296 276 267 265 263 269 273 269 267 265 264 265 263 260
171 208 161 242 327 200 232 233 207 220 233 265 274 278 199 240 231 264 258 257 250 256 261 266 262 275 291 302 310 311 299 280 264 262 269 275 271 268 264 263 261 260 258 257
153 139 120 239 158 142 285 225 203 195 211 211 223 240 189 246 218 233 244 222 236 242 250 255 250 261 281 293 301 300 301 285 269 268 271 269 266 264 262 262 259 256 255 257
146 127 113 172 71 231 239 175 192 210 234 216 256 253 209 227 231 244 232 214 233 237 246 248 250 264 277 291 296 297 289 278 272 271 270 267 264 264 265 262 260 259 258 256
143 128 126 156 209 306 290 218 177 170 265 208 219 248 236 182 198 277 221 212 226 227 237 249 250 263 279 288 296 292 288 280 273 271 272 270 267 267 267 263 262 262 260 259
102 70 133 143 187 215 233 232 160 128 282 186 200 229 188 137 171 255 135 212 224 233 247 240 255 274 279 290 301 292 287 285 276 277 281 285 279 270 268 268 268 269 266 264
138 42 195 160 224 279 250 169 161 139 237 161 192 203 148 183 202 196 342 222 218 226 251 264 269 271 286 295 294 291 289 286 293 294 293 290 288 282 277 274 273 270 264 260
165 161 174 117 208 266 185 98 181 206 196 150 168 186 187 221 261 272 269 289 269 266 275 280 281 292 301 301 297 289 287 295 295 293 295 297 295 290 285 280 276 270 265 263
196 185 181 185 206 221 190 215 218 158 155 173 143 153 172 187 207 188 225 232 247 264 280 296 299 298 299 298 297 290 294 300 302 301 299 299 301 295 291 285 281 273 261 254
241 166 201 114 219 234 212 232 257 214 218 169 154 189 183 214 247 268 282 281 275 286 290 294 287 284 288 296 297 296 303 309 309 305 303 303 302 303 302 297 285 273 262 254
183 150 167 258 283 321 241 223 216 218 234 178 192 207 226 211 242 227 246 255 267 283 296 296 292 290 293 296 298 304 308 308 305 304 303 304 304 301 296 290 283 275 271 257
178 174 190 221 204 187 212 208 209 206 218 210 199 220 218 199 240 271 268 271 273 285 293 291 291 294 295 300 303 307 313 309 300 298 303 304 301 299 295 291 292 280 266 266